Location: Azul
(36.7830°S, 59.8500°W)
Time: 00:44:19
(UTC-03:00)

NOAA 15 - Pass Details

Date: 29 October 2021
Orbit: 797 x 813 km, 98.7° (Epoch: 30 November)

Event Time Altitude Azimuth Distance (km) Brightness Sun altitude
Rises 20:56:11 0° 170° (S) 3,344 8.1 -16.5°
Reaches altitude 10° 20:58:32 10° 172° (S) 2,408 7.4 -16.9°
Maximum altitude 21:03:50 71° 254° (WSW) 860 4.9 -17.8°
Drops below altitude 10° 21:09:06 10° 337° (NNW) 2,387 6.9 -18.7°
Sets 21:11:25 0° 339° (NNW) 3,313 7.7 -19.0°
